Weather History for KDEC - May, 2013

Change the Weather History Date:

Friday, May 3, 2013

  Actual Average Record
Temperature  
Mean Temperature 58 °F 59 °F  
Max Temperature 69 °F 70 °F 85 °F (2012)
Min Temperature 47 °F 48 °F 28 °F (2005)
Degree Days  
Heating Degree Days 7 7  
Month to date heating degree days 8 21  
Since 1 July heating degree days 5297 5384  
Cooling Degree Days 0 1  
Month to date cooling degree days 2 3  
Year to date cooling degree days 12 17  
Growing Degree Days 8 (Base 50)    
Moisture  
Dew Point 53 °F    
Average Humidity 87    
Maximum Humidity 100    
Minimum Humidity 73    
Precipitation  
Precipitation 0.24 in 0.16 in 0.24 in (2013)
Month to date precipitation 0.76 0.48  
Year to date precipitation 12.44 10.64  
Sea Level Pressure  
Sea Level Pressure 29.94 in    
Wind  
Wind Speed 13 mph (East)    
Max Wind Speed 32 mph    
Max Gust Speed 45 mph    
Visibility 7 miles    
Events Rain    
T = Trace of Precipitation, MM = Missing Value Source: NWS Daily Summary

Daily Weather History Graph

Daily Weather History Graph

Search for Another Location

Airport or City:

Trip Planner

Search our weather history database for the weather conditions in past years. The results will help you decide how hot, cold, wet, or windy it might be!

Date:

Astronomy

May. 03, 2013 Rise Set
Actual Time 5:53 AM CDT 7:52 PM CDT
Civil Twilight 5:23 AM CDT 8:21 PM CDT
Nautical Twilight 4:47 AM CDT 8:57 PM CDT
Astronomical Twilight 4:09 AM CDT 9:36 PM CDT
Moon 2:16 AM CDT (5/3) 1:47 PM CDT (5/3)
Length of Visible Light 14h 58m
Length of Day
13h 59m
Last Quarter, 37% of the Moon is Illuminated
May 3
Last Quarter
May 9
New
May 17
First Quarter
May 24
Full
May 31
Last Quarter

Hourly Weather History & Observations

Time (CDT) Temp. Windchill Dew Point Humidity Pressure Visibility Wind Dir Wind Speed Gust Speed Precip Events Conditions
12:40 AM 50.0 °F - 48.2 °F 94% 30.06 in 7.0 mi NNE 12.7 mph - 0.00 in Rain Light Rain
12:54 AM 50.0 °F - 48.0 °F 93% 30.05 in 9.0 mi NNE 13.8 mph - 0.00 in   Overcast
1:30 AM 50.0 °F - 48.2 °F 94% 30.05 in 8.0 mi NNE 10.4 mph - N/A   Mostly Cloudy
1:54 AM 50.0 °F - 48.0 °F 93% 30.04 in 8.0 mi NNE 8.1 mph - N/A   Overcast
2:13 AM 48.2 °F - 48.2 °F 100% 30.03 in 8.0 mi NNE 12.7 mph - 0.00 in Rain Light Rain
2:47 AM 48.2 °F - 46.4 °F 93% 30.03 in 8.0 mi NNE 8.1 mph - 0.01 in Rain Light Rain
2:54 AM 48.0 °F - 46.9 °F 96% 30.03 in 8.0 mi NNE 10.4 mph - 0.01 in Rain Light Rain
3:23 AM 46.4 °F 41.1 °F 46.4 °F 100% 30.03 in 5.0 mi NE 11.5 mph - 0.02 in Rain Light Rain
3:54 AM 46.9 °F - 46.9 °F 100% 30.01 in 6.0 mi NE 11.5 mph - 0.05 in Rain Light Rain
4:07 AM 46.4 °F 41.5 °F 46.4 °F 100% 30.01 in 6.0 mi NE 10.4 mph - 0.00 in Rain Light Rain
4:43 AM 46.4 °F 41.5 °F 46.4 °F 100% 30.00 in 7.0 mi NE 10.4 mph - 0.01 in Rain Light Rain
4:54 AM 46.9 °F - 46.9 °F 100% 29.99 in 7.0 mi NE 9.2 mph - 0.01 in Rain Light Rain
5:54 AM 46.9 °F - 46.9 °F 100% 29.98 in 5.0 mi ENE 9.2 mph - 0.02 in Rain Light Rain
6:54 AM 46.9 °F - 46.9 °F 100% 29.99 in 4.0 mi ENE 13.8 mph - 0.01 in Rain Light Rain
7:54 AM 48.0 °F - 48.0 °F 100% 29.97 in 5.0 mi ENE 12.7 mph - 0.01 in Rain Light Rain
8:21 AM 48.2 °F - 48.2 °F 100% 29.96 in 4.0 mi East 15.0 mph - 0.00 in Rain Light Rain
8:40 AM 50.0 °F - 48.2 °F 94% 29.97 in 4.0 mi East 12.7 mph - 0.01 in Rain Light Rain
8:54 AM 50.0 °F - 50.0 °F 100% 29.97 in 3.0 mi East 13.8 mph - 0.02 in Rain Light Rain
9:08 AM 51.8 °F - 50.0 °F 94% 29.96 in 4.0 mi East 12.7 mph - 0.00 in Rain Light Rain
9:19 AM 51.8 °F - 51.8 °F 100% 29.96 in 4.0 mi East 10.4 mph - 0.00 in Rain Light Rain
9:54 AM 54.0 °F - 53.1 °F 97% 29.95 in 5.0 mi East 13.8 mph - 0.00 in Rain Light Rain
10:18 AM 57.2 °F - 55.4 °F 94% 29.94 in 5.0 mi East 9.2 mph - 0.00 in   Mostly Cloudy
10:54 AM 62.1 °F - 60.1 °F 93% 29.93 in 8.0 mi ESE 13.8 mph - 0.00 in   Overcast
11:19 AM 62.6 °F - 60.8 °F 94% 29.93 in 7.0 mi SE 12.7 mph - N/A   Overcast
11:54 AM 64.9 °F - 63.0 °F 93% 29.91 in 8.0 mi SE 10.4 mph - N/A   Overcast
12:54 PM 66.9 °F - 60.1 °F 79% 29.90 in 10.0 mi SSE 11.5 mph 20.7 mph N/A   Overcast
1:28 PM 66.2 °F - 60.8 °F 83% 29.89 in 10.0 mi SSE 12.7 mph - N/A   Overcast
1:54 PM 66.9 °F - 60.1 °F 79% 29.88 in 10.0 mi SSE 8.1 mph - N/A   Overcast
2:54 PM 68.0 °F - 61.0 °F 78% 29.86 in 10.0 mi SE 11.5 mph - 0.00 in   Mostly Cloudy
3:54 PM 68.0 °F - 60.1 °F 76% 29.85 in 10.0 mi SE 13.8 mph - 0.00 in   Overcast
4:54 PM 69.1 °F - 62.1 °F 78% 29.82 in 10.0 mi East 15.0 mph - N/A   Partly Cloudy
5:54 PM 69.1 °F - 61.0 °F 75% 29.80 in 10.0 mi ESE 12.7 mph - N/A   Clear
6:54 PM 66.9 °F - 62.1 °F 84% 29.80 in 10.0 mi East 13.8 mph - N/A   Partly Cloudy
7:54 PM 66.9 °F - 60.1 °F 79% 29.81 in 10.0 mi ESE 12.7 mph - N/A   Clear
8:54 PM 64.9 °F - 60.1 °F 84% 29.81 in 10.0 mi East 10.4 mph - N/A   Partly Cloudy
9:54 PM 66.0 °F - 59.0 °F 78% 29.81 in 10.0 mi East 15.0 mph - 0.00 in Rain Light Rain
10:54 PM 61.0 °F - 57.9 °F 90% 29.84 in 10.0 mi ESE 19.6 mph - 0.11 in Rain Light Rain
11:54 PM 61.0 °F - 59.0 °F 93% 29.85 in 10.0 mi ESE 17.3 mph - 0.00 in   Overcast